Location: Moscow
(55.7500°N, 37.5830°E)
Time: 23:15:50
(UTC+03:00)

COSMOS 2251 DEB - Pass Details

Date: 06 July 2022
Orbit: 738 x 847 km, 74.1° (Epoch: 17 August)

Event Time Altitude Azimuth Distance (km) Brightness Sun altitude
Rises 00:02:47 0° 316° (NW) 3,282 ? -11.2°
Reaches altitude 10° 00:07:35 10° 355° (N) 2,320 ? -11.3°
Maximum altitude 00:08:43 11° 7° (N) 2,270 ? -11.3°
Drops below altitude 10° 00:09:50 10° 20° (NNE) 2,306 ? -11.4°
Sets 00:14:32 0° 59° (ENE) 3,206 ? -11.4°
